Location: Ash Swamp
(41.5170°N, 74.6157°W)
Time: 17:18:58
(UTC+00:00)

Okean 1 - Pass Details

Date: 14 July 2020
Orbit: 538 x 556 km, 82.5° (Epoch: 04 August)

Event Time Altitude Azimuth Distance (km) Brightness Sun altitude
Rises 06:41:31 0° 343° (NNW) 2,704 7.6 -23.0°
Reaches altitude 10° 06:43:47 10° 334° (NNW) 1,808 6.4 -22.8°
Enters shadow 06:46:38 32° 295° (WNW) 945 4.4 -22.6°
